N4GD Weather Reports


Display with metric or nautical units.
time (UTC)temp
F
wind
direction
speed
MPH
gust
MPH
rain 1hr
in
rain 24hr
in
rain mn
in
humidity
%
barometer
mb
20200606132305 75 109 0.0 4.0 0.24 1.29 1.20 97 1013.2
20200606130801 75 105 0.0 5.0 0.62 1.18 1.09 97 1013.2
20200606125257 74 81 0.0 4.0 0.64 1.16 1.06 97 1012.9
20200606123759 74 292 1.0 7.0 0.64 1.14 1.04 97 1012.8
20200606122250 75 333 1.0 9.0 0.58 1.04 0.95 97 1013.2
20200606120750 75 351 1.0 6.0 0.34 0.56 0.46 97 1012.5
20200606115247 75 51 0.0 4.0 0.30 0.52 0.42 97 1012.1
20200606113742 75 108 1.0 4.0 0.29 0.50 0.40 97 1012.5
20200606112240 75 121 1.0 6.0 0.25 0.46 0.37 97 1012.7
20200606110738 75 118 2.0 7.0 0.02 0.22 0.12 97 1012.5
20200606105235 75 105 0.0 5.0 0.02 0.22 0.12 97 1012.0
20200606103733 75 111 1.0 4.0 0.01 0.21 0.11 97 1012.2
20200606102233 75 104 0.0 4.0 0.01 0.21 0.11 97 1012.1
20200606100731 75 97 0.0 2.0 0.00 0.20 0.10 97 1012.1
20200606095234 75 111 0.0 0.0 0.00 0.20 0.10 97 1012.0
20200606093729 75 110 0.0 2.0 0.00 0.20 0.10 97 1012.1
20200606092229 74 100 0.0 5.0 0.00 0.20 0.10 97 1011.9
20200606090731 74 90 0.0 4.0 0.00 0.20 0.10 97 1011.9
20200606085227 74 103 0.0 0.0 0.01 0.20 0.10 97 1011.9
20200606083726 74 105 0.0 0.0 0.02 0.20 0.10 97 1012.0
20200606082221 74 106 0.0 4.0 0.03 0.20 0.10 97 1012.2
20200606080715 74 110 0.0 4.0 0.06 0.20 0.10 97 1012.4
20200606075215 74 12 2.0 7.0 0.05 0.19 0.09 96 1012.6
20200606073710 74 119 3.0 7.0 0.08 0.18 0.08 96 1012.9
20200606072209 74 120 3.0 12.0 0.07 0.17 0.07 96 1013.0
20200606070707 75 151 5.0 11.0 0.04 0.14 0.04 96 1013.1
20200606065204 75 132 4.0 10.0 0.04 0.14 0.04 95 1013.2
20200606063659 75 122 3.0 8.0 0.00 0.10 0.00 95 1013.1
20200606062158 75 107 2.0 7.0 0.00 0.10 0.00 95 1012.9
20200606060659 75 109 2.0 5.0 0.00 0.10 0.00 95 1012.9
20200606055156 75 115 3.0 8.0 0.00 0.10 0.00 94 1013.1
20200606053655 75 105 4.0 9.0 0.00 0.10 0.00 94 1013.4
20200606052148 75 86 4.0 9.0 0.00 0.10 0.00 94 1013.6
20200606050648 75 117 3.0 9.0 0.00 0.10 0.00 94 1013.6
20200606045148 74 113 5.0 9.0 0.00 0.10 0.00 94 1013.6
20200606043649 74 126 4.0 9.0 0.00 0.10 0.00 95 1013.8
20200606042146 74 109 2.0 8.0 0.00 0.10 0.00 95 1013.6
20200606040645 74 113 2.0 7.0 0.00 0.10 0.00 95 1013.8
20200606035141 74 111 4.0 8.0 0.00 0.10 0.10 96 1013.8
20200606033646 74 107 4.0 10.0 0.00 0.10 0.10 96 1013.9
20200606032136 74 111 4.0 10.0 0.00 0.10 0.10 96 1013.8
20200606030636 75 121 4.0 8.0 0.00 0.10 0.10 96 1013.9
20200606025132 75 115 3.0 9.0 0.00 0.10 0.10 96 1013.8
20200606023632 75 107 3.0 8.0 0.00 0.10 0.10 96 1013.8
20200606022131 75 114 4.0 9.0 0.00 0.10 0.10 96 1013.9
20200606020630 75 100 3.0 11.0 0.00 0.10 0.10 96 1013.8
20200606015130 75 107 3.0 8.0 0.01 0.10 0.10 96 1013.6
20200606013630 75 95 4.0 8.0 0.01 0.10 0.10 96 1013.7
20200606012133 75 119 3.0 10.0 0.01 0.10 0.10 96 1013.6
20200606010630 75 111 3.0 9.0 0.01 0.10 0.10 96 1013.6
20200606005128 76 99 2.0 7.0 0.01 0.09 0.09 96 1013.6
20200606003626 76 111 3.0 8.0 0.02 0.09 0.09 96 1013.3
20200606002127 76 119 3.0 8.0 0.04 0.09 0.09 95 1013.4
20200606000624 76 123 2.0 7.0 0.04 0.09 0.09 95 1013.6
20200605235123 77 119 2.0 7.0 0.04 0.08 0.08 94 1013.9
20200605233620 78 113 2.0 10.0 0.04 0.07 0.07 93 1013.8
20200605232119 79 166 4.0 10.0 0.03 0.05 0.05 92 1014.0
20200605230617 80 139 0.0 0.0 0.03 0.05 0.05 92 1014.1
20200605225114 81 139 0.0 0.0 0.02 0.05 0.04 90 1014.0
20200605223615 81 139 0.0 1.0 0.01 0.04 0.03 89 1013.9
20200605222111 82 132 0.0 1.0 0.00 0.04 0.02 87 1013.4
20200605220604 83 133 0.0 1.0 0.00 0.04 0.02 87 1013.5
20200605215104 83 133 0.0 2.0 0.00 0.04 0.02 87 1013.8
20200605213604 83 140 0.0 2.0 0.00 0.05 0.02 89 1013.6
20200605212105 83 139 0.0 0.0 0.00 0.33 0.02 90 1013.4
20200605210602 82 139 0.0 0.0 0.00 0.33 0.02 89 1013.5
20200605205105 82 136 0.0 1.0 0.01 0.33 0.02 90 1013.4
20200605203605 81 134 0.0 4.0 0.01 0.33 0.02 90 1013.4
20200605202056 81 135 0.0 4.0 0.01 0.33 0.02 92 1013.3
20200605200556 81 134 0.0 4.0 0.01 0.33 0.02 89 1013.1
20200605195053 84 132 4.0 11.0 0.00 0.32 0.01 82 1013.4
20200605193556 88 105 2.0 5.0 0.00 0.32 0.01 71 1013.5
20200605192053 88 103 0.0 5.0 0.00 0.32 0.01 72 1013.7
20200605190550 88 111 1.0 7.0 0.00 0.32 0.01 72 1013.8
20200605185047 88 102 1.0 8.0 0.00 0.32 0.01 72 1013.8
20200605183548 89 105 3.0 7.0 0.00 0.32 0.01 70 1013.8
20200605182047 89 103 2.0 5.0 0.00 0.32 0.01 70 1013.8
20200605180544 89 119 2.0 7.0 0.00 0.32 0.01 71 1014.0
20200605175043 89 123 2.0 8.0 0.00 0.32 0.01 71 1014.2
20200605173540 89 108 3.0 8.0 0.00 0.32 0.01 70 1014.5
20200605172038 89 115 3.0 8.0 0.00 0.32 0.01 73 1014.6
20200605170534 89 141 4.0 9.0 0.00 0.32 0.01 71 1014.6
20200605165035 88 119 3.0 8.0 0.00 0.32 0.01 68 1014.7
20200605163533 88 144 3.0 8.0 0.00 0.32 0.01 70 1014.8
20200605162034 87 115 4.0 10.0 0.00 0.32 0.01 74 1014.9
20200605160537 87 108 4.0 8.0 0.00 0.32 0.01 74 1015.0
20200605155033 87 111 4.0 7.0 0.01 0.33 0.01 74 1015.0
20200605153534 85 140 2.0 8.0 0.01 0.34 0.01 76 1015.0
20200605152034 84 105 3.0 7.0 0.01 0.35 0.01 84 1014.9
20200605150533 83 123 3.0 8.0 0.01 0.35 0.01 89 1015.1
20200605145025 81 121 1.0 6.0 0.00 0.35 0.00 93 1015.1
20200605143525 80 126 1.0 6.0 0.00 0.39 0.00 94 1015.0
20200605142025 78 120 0.0 4.0 0.00 0.43 0.00 96 1015.1
20200605140523 78 120 0.0 5.0 0.00 0.58 0.00 96 1014.8
20200605135025 78 122 2.0 5.0 0.00 0.59 0.00 97 1014.7
20200605133525 78 119 0.0 5.0 0.00 0.59 0.00 97 1014.6